3 May
2020
3 May
'20
12:01 a.m.
Guatemala's first satellite QUETZAL-1 was deployed from the ISS on April 28, 2020. Below is a TLE set for QUETZAL-1
QUETZAL-1 will send mostly telemetry of its health status. It also has a camera that will take pictures of the earth. A downlink of 4800 bps GMSK on 437.200 MHz has been coordinated with the IRAU.
See AMSAT-UK website at https://amsat-uk.org/2020/04/30/guatemala-quetzal-1-cubesat/ for more info.
QUETZAL-1 1 45598U 98067RL 20123.49846198 .00008475 00000-0 15720-3 0 9990 2 45598 51.6450 214.5908 0002193 263.8257 183.8606 15.49834326 660
Ray Hoad WA5QGD AMSAT-NA Orbital Elements Manager